Location: Gaast
(52.9002°N, 5.8891°E)
Time: 02:05:22
(UTC+00:00)

Cosmos 1844 Rocket - Pass Details

Date: 18 November 2025
Orbit: 822 x 844 km, 71.0° (Epoch: 15 December)

Event Time Altitude Azimuth Distance (km) Brightness Sun altitude
Rises 16:09:59 0° 234° (SW) 3,353 8.1 -5.1°
Reaches altitude 10° 16:12:32 10° 242° (WSW) 2,426 7.0 -5.5°
Maximum altitude 16:17:48 42° 313° (NW) 1,166 3.7 -6.2°
Drops below altitude 10° 16:23:08 10° 24° (NNE) 2,450 4.7 -6.9°
Enters shadow 16:25:13 - 30° (NNE) 3,206 5.2 -7.2°
